FW8647 Weather Reports


time (UTC)temp
F
wind
direction
speed
knots
gust
knots
rain 1hr
in
rain 24hr
in
rain mn
in
humidity
%
barometer
mb
20260504050305 51 224 7.0 11.3 0.00 0.00 0.00 64 1011.4
20260504045304 51 197 10.4 11.3 0.00 0.00 0.00 64 1011.0
20260504044257 51 191 9.6 12.2 0.00 0.00 0.00 64 1011.1
20260504043257 52 195 7.8 11.3 0.00 0.00 0.00 63 1011.4
20260504042257 52 168 9.6 12.2 0.00 0.00 0.00 62 1011.4
20260504041254 53 193 7.8 11.3 0.00 0.00 0.00 61 1011.6
20260504040254 53 229 9.6 13.0 0.00 0.00 0.00 61 1011.6
20260504035253 53 222 9.6 11.3 0.00 0.00 0.00 62 1011.4
20260504034248 53 205 8.7 12.2 0.00 0.00 0.00 62 1011.4
20260504033243 53 173 7.8 9.6 0.00 0.00 0.00 62 1011.7
20260504032242 53 209 11.3 14.8 0.00 0.00 0.00 62 1011.7
20260504031237 53 200 11.3 14.8 0.00 0.00 0.00 62 1011.5
20260504030236 53 279 11.3 14.8 0.00 0.00 0.00 61 1011.4
20260504025235 53 212 13.9 19.1 0.00 0.00 0.00 59 1011.6
20260504024234 53 192 7.8 13.9 0.00 0.00 0.00 60 1011.4
20260504023233 53 202 13.9 18.2 0.00 0.00 0.00 59 1011.4
20260504022231 53 195 7.0 13.0 0.00 0.00 0.00 59 1011.7
20260504021226 53 139 13.0 18.2 0.00 0.00 0.00 59 1011.5
20260504020225 53 171 11.3 13.0 0.00 0.00 0.00 59 1011.5
20260504015224 53 216 7.0 13.0 0.00 0.00 0.00 59 1011.5
20260504014222 53 192 9.6 11.3 0.00 0.00 0.00 59 1011.5
20260504013218 53 204 13.9 18.2 0.00 0.00 0.00 58 1011.4
20260504012212 53 191 13.0 15.6 0.00 0.00 0.00 57 1011.2
20260504011211 53 179 12.2 15.6 0.00 0.00 0.00 57 1011.2
20260504010208 53 191 17.4 19.1 0.00 0.00 0.00 58 1011.1
20260504005208 54 145 10.4 13.9 0.00 0.00 0.00 57 1011.4
20260504004203 54 195 8.7 11.3 0.00 0.00 0.00 57 1011.3
20260504003202 54 206 8.7 11.3 0.00 0.00 0.00 56 1011.2
20260504002202 54 205 12.2 13.9 0.00 0.00 0.00 56 1011.0
20260504001202 55 195 10.4 14.8 0.00 0.00 0.00 55 1011.0
20260504000204 55 220 8.7 11.3 0.00 0.00 0.00 56 1011.2
20260503235203 55 188 9.6 11.3 0.00 0.00 0.00 56 1011.1
20260503234159 54 187 6.1 7.8 0.00 0.00 0.00 57 1011.4
20260503233156 54 162 7.0 7.8 0.00 0.00 0.00 57 1011.2
20260503232151 55 188 4.3 8.7 0.00 0.00 0.00 56 1011.4
20260503231151 55 155 8.7 9.6 0.00 0.00 0.00 55 1011.5
20260503230151 55 205 7.0 13.0 0.00 0.00 0.00 55 1011.3
20260503225148 55 199 5.2 7.8 0.00 0.00 0.00 55 1011.7
20260503224149 55 190 4.3 7.8 0.00 0.00 0.00 54 1011.6
20260503223148 55 192 7.8 9.6 0.00 0.00 0.00 54 1011.6
20260503222143 55 218 5.2 7.0 0.00 0.00 0.00 55 1011.8
20260503221139 55 208 5.2 8.7 0.00 0.00 0.00 55 1011.9
20260503220138 55 196 0.9 2.6 0.00 0.00 0.00 56 1011.9
20260503215137 55 138 8.7 12.2 0.00 0.00 0.00 55 1011.8
20260503214137 55 216 5.2 7.8 0.00 0.00 0.00 56 1011.9
20260503213133 55 181 5.2 7.8 0.00 0.00 0.00 53 1011.8
20260503212128 54 259 3.5 4.3 0.00 0.00 0.00 56 1012.0
20260503211127 54 266 4.3 6.1 0.00 0.00 0.00 57 1012.1
20260503210126 54 313 10.4 13.9 0.00 0.00 0.00 55 1012.4
20260503205124 54 282 7.8 8.7 0.00 0.00 0.00 55 1012.4
20260503204124 55 268 2.6 6.1 0.00 0.00 0.00 54 1012.5
20260503203119 55 253 3.5 4.3 0.00 0.00 0.00 55 1012.4
20260503202114 55 339 7.0 12.2 0.00 0.00 0.00 55 1012.3
20260503201109 55 330 8.7 13.9 0.00 0.00 0.00 54 1012.6
20260503200107 55 270 13.0 15.6 0.00 0.00 0.00 53 1012.5
20260503195105 55 230 4.3 7.0 0.00 0.00 0.00 52 1012.6
20260503194103 56 239 6.1 7.8 0.00 0.00 0.00 51 1012.6
20260503193101 56 294 12.2 14.8 0.00 0.00 0.00 51 1012.5
20260503192100 56 281 10.4 15.6 0.00 0.00 0.00 49 1012.7
20260503191059 56 242 8.7 14.8 0.00 0.00 0.00 50 1012.8
20260503190059 56 301 13.0 14.8 0.00 0.00 0.00 49 1012.9
20260503185055 57 249 11.3 14.8 0.00 0.00 0.00 46 1012.9
20260503184054 57 275 13.0 15.6 0.00 0.00 0.00 43 1012.6
20260503183054 57 187 7.0 8.7 0.00 0.00 0.00 42 1012.6
20260503182050 58 170 8.7 12.2 0.00 0.00 0.00 41 1012.5
20260503181049 58 222 9.6 12.2 0.00 0.00 0.00 41 1012.7
20260503180044 57 214 12.2 18.2 0.00 0.00 0.00 44 1013.2
20260503175044 56 211 9.6 13.9 0.00 0.00 0.00 55 1012.9
20260503174043 56 211 9.6 13.9 0.00 0.00 0.00 55 1013.2
20260503173041 56 210 19.1 21.7 0.00 0.00 0.00 58 1013.5
20260503172041 54 192 5.2 9.6 0.00 0.00 0.00 58 1013.7
20260503171041 55 192 15.6 19.1 0.00 0.00 0.00 57 1013.7
20260503131007 42 230 2.6 5.2 0.00 0.00 0.00 63 1016.7
20260503080849 0 0.0 0.0 0.00 0.00 0.00 1016.8
20260503072840 36 201 1.7 2.6 0.00 0.00 0.00 82 1016.8
20260503071839 36 201 1.7 2.6 0.00 0.00 0.00 82 1016.8
20260503070838 36 201 0.9 1.7 0.00 0.00 0.00 81 1017.0